Weather History for Jefferson, NC

Change the Weather History Date:

Thursday, January 15, 2009

  Actual Average Record
Temperature  
Mean Temperature 24 °F -  
Max Temperature 35 °F 41 °F 62 °F (2007)
Min Temperature 12 °F 20 °F 6 °F (1988)
Degree Days  
Heating Degree Days 42    
Moisture  
Dew Point 8 °F    
Average Humidity 56    
Maximum Humidity 74    
Minimum Humidity 42    
Precipitation  
Precipitation 0.03 in - - ()
Sea Level Pressure  
Sea Level Pressure 30.10 in    
Wind  
Wind Speed 15 mph (WNW)    
Max Wind Speed 26 mph    
Max Gust Speed 41 mph    
Visibility 10 miles    
Events Snow    
Averages and records for this station are not official NWS values.
T = Trace of Precipitation, MM = Missing Value Source: NWS Daily Summary

Daily Weather History Graph

Daily Weather History Graph

Search for Another Location

Airport:

Trip Planner

Search our weather history database for the weather conditions in past years. The results will help you decide how hot, cold, wet, or windy it might be!

Date:

Astronomy

Jan. 15, 2009 Rise Set
Actual Time 7:36 AM EST 5:34 PM EST
Civil Twilight 7:08 AM EST 6:02 PM EST
Nautical Twilight 6:36 AM EST 6:33 PM EST
Astronomical Twilight 6:05 AM EST 7:04 PM EST
Moon 11:03 PM EST (1/15) 10:18 AM EST (1/15)
Length of Visible Light 10h 53m
Length of Day
9h 57m
Waning Gibbous, 74% of the Moon is Illuminated
Jan 15
Waning Gibbous
Jan 17
Last Quarter
Jan 26
New
Feb 2
First Quarter
Feb 9
Full

Hourly Weather History & Observations

Time (EST) Temp. Windchill Dew Point Humidity Pressure Visibility Wind Dir Wind Speed Gust Speed Precip Events Conditions
12:02 AM 35.6 °F 26.2 °F 17.6 °F 48% 29.98 in 10.0 mi West 15.0 mph 25.3 mph N/A   Mostly Cloudy
12:22 AM 35.6 °F 24.5 °F 17.6 °F 48% 29.97 in 10.0 mi West 20.7 mph 31.1 mph N/A   Overcast
12:42 AM 35.6 °F 25.5 °F 15.8 °F 44% 29.97 in 10.0 mi West 17.3 mph 27.6 mph N/A   Overcast
1:02 AM 35.6 °F 24.5 °F 15.8 °F 44% 29.97 in 10.0 mi West 20.7 mph 34.5 mph N/A   Mostly Cloudy
1:23 AM 35.6 °F 25.2 °F 17.6 °F 48% 29.97 in 10.0 mi West 18.4 mph 33.4 mph N/A   Overcast
1:42 AM 35.6 °F 24.8 °F 17.6 °F 48% 29.96 in 10.0 mi West 19.6 mph 36.8 mph N/A   Mostly Cloudy
2:02 AM 33.8 °F 20.8 °F 15.8 °F 48% 29.96 in 10.0 mi West 26.5 mph 39.1 mph N/A   Mostly Cloudy
2:22 AM 33.8 °F 22.8 °F 15.8 °F 48% 29.97 in 10.0 mi West 18.4 mph 26.5 mph N/A   Mostly Cloudy
2:42 AM 33.8 °F 23.9 °F 15.8 °F 48% 29.97 in 10.0 mi West 15.0 mph 20.7 mph N/A   Overcast
3:02 AM 33.8 °F 23.9 °F 17.6 °F 52% 29.97 in 10.0 mi West 15.0 mph 23.0 mph N/A   Overcast
3:24 AM 32.0 °F 22.5 °F 17.6 °F 55% 29.97 in 10.0 mi West 12.7 mph 27.6 mph N/A   Overcast
3:44 AM 32.0 °F 19.8 °F 17.6 °F 55% 29.97 in 10.0 mi WNW 20.7 mph 40.3 mph N/A   Overcast
4:03 AM 30.2 °F 16.5 °F 17.6 °F 60% 29.97 in 10.0 mi West 24.2 mph 41.4 mph N/A   Overcast
4:22 AM 30.2 °F 19.3 °F 19.4 °F 64% 29.98 in 10.0 mi West 15.0 mph 33.4 mph N/A   Overcast
5:02 AM 30.2 °F 17.4 °F 21.2 °F 69% 29.97 in 10.0 mi West 20.7 mph 36.8 mph N/A   Overcast
5:22 AM 28.4 °F 14.7 °F 17.6 °F 64% 29.98 in 10.0 mi West 21.9 mph 36.8 mph N/A   Overcast
5:44 AM 26.6 °F 13.4 °F 15.8 °F 64% 30.00 in 10.0 mi WNW 18.4 mph 36.8 mph N/A   Overcast
6:04 AM 24.8 °F 11.9 °F 15.8 °F 69% 30.02 in 10.0 mi WNW 16.1 mph 33.4 mph N/A   Mostly Cloudy
6:23 AM 24.8 °F - 15.8 °F 69% 30.04 in 10.0 mi Calm Calm - N/A   Overcast
6:45 AM 23.0 °F 9.6 °F 14.0 °F 68% 30.04 in 10.0 mi West 16.1 mph 26.5 mph N/A   Overcast
7:02 AM 21.2 °F 9.5 °F 14.0 °F 74% 30.06 in 10.0 mi NNW 11.5 mph 17.3 mph N/A   Overcast
7:22 AM 21.2 °F 11.7 °F 14.0 °F 74% 30.07 in 10.0 mi NW 8.1 mph 20.7 mph N/A Snow Light Snow
7:42 AM 19.4 °F 6.0 °F 12.2 °F 74% 30.07 in 10.0 mi NW 13.8 mph 21.9 mph N/A Snow Light Snow
8:02 AM 19.4 °F 6.6 °F 12.2 °F 74% 30.09 in 10.0 mi NW 12.7 mph 28.8 mph N/A Snow Light Snow
8:22 AM 17.6 °F 8.2 °F 10.4 °F 73% 30.10 in 10.0 mi North 6.9 mph - N/A Snow Light Snow
9:02 AM 17.6 °F 4.3 °F 10.4 °F 73% 30.12 in 4.0 mi NW 12.7 mph 18.4 mph N/A Snow Light Snow
9:22 AM 17.6 °F 5.0 °F 8.6 °F 68% 30.13 in 3.0 mi NW 11.5 mph 21.9 mph N/A Snow Light Snow
9:42 AM 17.6 °F 9.3 °F 10.4 °F 73% 30.14 in 2.5 mi North 5.8 mph 18.4 mph N/A Snow Light Snow
10:03 AM 17.6 °F - 8.6 °F 68% 30.15 in 5.0 mi Calm Calm - N/A Snow Light Snow
10:22 AM 17.6 °F 8.2 °F 8.6 °F 68% 30.16 in 7.0 mi WNW 6.9 mph - N/A Snow Light Snow
10:42 AM 17.6 °F 4.3 °F 6.8 °F 63% 30.16 in 10.0 mi WNW 12.7 mph 20.7 mph N/A   Mostly Cloudy
11:02 AM 17.6 °F 3.7 °F 6.8 °F 63% 30.16 in 10.0 mi WNW 13.8 mph 21.9 mph N/A   Mostly Cloudy
11:22 AM 17.6 °F 5.7 °F 3.2 °F 53% 30.16 in 10.0 mi NW 10.4 mph 21.9 mph N/A   Scattered Clouds
11:43 AM 17.6 °F 6.4 °F 3.2 °F 53% 30.16 in 10.0 mi West 9.2 mph 21.9 mph N/A   Scattered Clouds
12:22 PM 19.4 °F 7.9 °F 3.2 °F 49% 30.15 in 10.0 mi WNW 10.4 mph 16.1 mph N/A   Clear
12:42 PM 19.4 °F 7.9 °F 3.2 °F 49% 30.15 in 10.0 mi West 10.4 mph 16.1 mph N/A   Clear
1:02 PM 17.6 °F 3.7 °F 1.4 °F 49% 30.15 in 10.0 mi NW 13.8 mph 19.6 mph N/A   Scattered Clouds
1:22 PM 17.6 °F 8.2 °F 1.4 °F 49% 30.15 in 10.0 mi West 6.9 mph 21.9 mph N/A   Scattered Clouds
1:42 PM 17.6 °F 12.3 °F 1.4 °F 49% 30.16 in 10.0 mi NW 3.5 mph 18.4 mph N/A   Scattered Clouds
2:02 PM 19.4 °F 9.5 °F 3.2 °F 49% 30.16 in 10.0 mi NW 8.1 mph 17.3 mph N/A   Scattered Clouds
2:22 PM 19.4 °F 7.9 °F 3.2 °F 49% 30.16 in 10.0 mi West 10.4 mph 16.1 mph N/A   Overcast
2:44 PM 19.4 °F 11.5 °F 3.2 °F 49% 30.16 in 10.0 mi NW 5.8 mph 9.2 mph N/A   Overcast
3:02 PM 19.4 °F 7.2 °F -0.4 °F 42% 30.17 in 10.0 mi WNW 11.5 mph 21.9 mph N/A   Scattered Clouds
3:22 PM 19.4 °F 5.0 °F -0.4 °F 42% 30.17 in 10.0 mi West 16.1 mph 23.0 mph N/A   Clear
3:43 PM 17.6 °F 0.1 °F -2.2 °F 42% 30.18 in 10.0 mi West 23.0 mph - N/A   Clear
4:01 PM 17.6 °F 3.7 °F -2.2 °F 42% 30.20 in - West 13.8 mph 23.0 mph 0.03 in   Clear
4:21 PM 17.6 °F 3.2 °F -2.2 °F 42% 30.19 in 10.0 mi WNW 15.0 mph 25.3 mph 0.03 in   Clear
4:41 PM 17.6 °F 5.0 °F -2.2 °F 42% 30.19 in 10.0 mi WNW 11.5 mph 18.4 mph 0.03 in   Clear
5:01 PM 15.8 °F 1.4 °F -2.2 °F 45% 30.20 in 10.0 mi WNW 13.8 mph 28.8 mph N/A   Clear
5:21 PM 15.8 °F 6.1 °F -2.2 °F 45% 30.21 in 10.0 mi West 6.9 mph 20.7 mph N/A   Clear
5:41 PM 15.8 °F 4.2 °F -0.4 °F 49% 30.21 in 10.0 mi WNW 9.2 mph 19.6 mph N/A   Clear
6:01 PM 15.8 °F 6.1 °F -0.4 °F 49% 30.21 in 10.0 mi West 6.9 mph 21.9 mph N/A   Clear
6:21 PM 15.8 °F 7.2 °F -0.4 °F 49% 30.22 in 10.0 mi West 5.8 mph 19.6 mph N/A   Scattered Clouds
6:41 PM 14.0 °F 1.2 °F -0.4 °F 53% 30.23 in 10.0 mi WNW 10.4 mph 20.7 mph N/A   Scattered Clouds
7:01 PM 12.2 °F 1.7 °F -0.4 °F 57% 30.23 in 10.0 mi WNW 6.9 mph 17.3 mph N/A   Scattered Clouds
7:21 PM 12.2 °F 1.7 °F -0.4 °F 57% 30.24 in 10.0 mi NW 6.9 mph 16.1 mph N/A   Mostly Cloudy
7:41 PM 12.2 °F -1.0 °F 3.2 °F 67% 30.25 in 7.0 mi WNW 10.4 mph 19.6 mph N/A Snow Light Snow
8:02 PM 10.4 °F -1.5 °F 3.2 °F 73% 30.26 in 4.0 mi NW 8.1 mph 17.3 mph N/A Snow Light Snow
8:21 PM 10.4 °F 4.0 °F 1.4 °F 67% 30.27 in 5.0 mi NNW 3.5 mph - N/A Snow Light Snow
8:41 PM 10.4 °F -0.4 °F 1.4 °F 67% 30.28 in 10.0 mi NNW 6.9 mph - N/A   Overcast
9:01 PM 10.4 °F -0.4 °F -0.4 °F 62% 30.29 in 10.0 mi WNW 6.9 mph - N/A   Overcast
9:21 PM 10.4 °F -0.4 °F -0.4 °F 62% 30.29 in 10.0 mi West 6.9 mph - N/A   Overcast
9:41 PM 8.6 °F - -4.0 °F 57% 30.30 in 10.0 mi Calm Calm - N/A   Overcast
10:01 PM 8.6 °F 2.0 °F -4.0 °F 57% 30.31 in 10.0 mi WNW 3.5 mph - N/A   Mostly Cloudy
10:21 PM 8.6 °F -5.5 °F -4.0 °F 57% 30.31 in 10.0 mi NNW 10.4 mph 19.6 mph N/A   Scattered Clouds
10:41 PM 6.8 °F -6.9 °F -5.8 °F 56% 30.31 in 10.0 mi NW 9.2 mph - N/A   Scattered Clouds
11:01 PM 5.0 °F -14.7 °F -7.6 °F 56% 30.31 in 10.0 mi WNW 18.4 mph 24.2 mph N/A   Clear
11:21 PM 5.0 °F -14.2 °F -7.6 °F 56% 30.31 in 10.0 mi WNW 17.3 mph 24.2 mph N/A   Clear
11:41 PM 5.0 °F -14.7 °F -7.6 °F 56% 30.31 in 10.0 mi WNW 18.4 mph 26.5 mph N/A   Clear